| time (UTC) | temp F | wind direction | speed knots | gust knots | rain 1hr in | rain 24hr in | rain mn in | humidity % | barometer mb |
| 20260504035207 | 0 | 336 | 1.7 | 1.7 | 0.00 | 0.00 | 0.00 | 1008.6 | |
| 20260504034704 | 0 | 260 | 0.9 | 1.7 | 0.00 | 0.00 | 0.00 | 1008.6 | |
| 20260504034201 | 0 | 305 | 0.9 | 1.7 | 0.00 | 0.00 | 0.00 | 1008.5 | |
| 20260504033659 | 0 | 257 | 0.9 | 1.7 | 0.00 | 0.00 | 0.00 | 1008.7 | |
| 20260504033156 | 0 | 253 | 0.9 | 0.9 | 0.00 | 0.00 | 0.00 | 1008.6 | |
| 20260504032653 | 0 | 275 | 1.7 | 1.7 | 0.00 | 0.00 | 0.00 | 1008.7 | |
| 20260504032150 | 0 | 247 | 0.9 | 1.7 | 0.00 | 0.00 | 0.00 | 1008.6 | |
| 20260504031647 | 0 | 302 | 1.7 | 1.7 | 0.00 | 0.00 | 0.00 | 1009.0 | |
| 20260504031143 | 0 | 252 | 0.9 | 1.7 | 0.00 | 0.00 | 0.00 | 1008.9 | |
| 20260504030640 | 0 | 265 | 0.9 | 4.3 | 0.00 | 0.00 | 0.00 | 1008.7 | |
| 20260504030137 | 0 | 265 | 1.7 | 2.6 | 0.00 | 0.00 | 0.00 | 1008.7 | |
| 20260504025633 | 0 | 266 | 0.9 | 2.6 | 0.00 | 0.00 | 0.00 | 1008.7 | |
| 20260504025130 | 0 | 266 | 0.9 | 1.7 | 0.00 | 0.00 | 0.00 | 1008.6 | |
| 20260504024628 | 0 | 256 | 0.9 | 0.9 | 0.00 | 0.00 | 0.00 | 1008.5 | |
| 20260504024124 | 0 | 264 | 0.9 | 0.9 | 0.00 | 0.00 | 0.00 | 1008.6 | |
| 20260504023621 | 0 | 330 | 1.7 | 1.7 | 0.00 | 0.00 | 0.00 | 1008.5 | |
| 20260504023117 | 0 | 244 | 0.9 | 0.9 | 0.00 | 0.00 | 0.00 | 1008.5 | |
| 20260504022613 | 0 | 243 | 0.9 | 0.9 | 0.00 | 0.00 | 0.00 | 1008.5 | |
| 20260504022109 | 0 | 243 | 0.0 | 0.9 | 0.00 | 0.00 | 0.00 | 1008.5 | |
| 20260504021608 | 0 | 244 | 0.9 | 0.9 | 0.00 | 0.00 | 0.00 | 1008.1 | |
| 20260504021104 | 0 | 240 | 0.9 | 1.7 | 0.00 | 0.00 | 0.00 | 1008.1 | |
| 20260504020601 | 0 | 236 | 0.0 | 0.9 | 0.00 | 0.00 | 0.00 | 1008.2 | |
| 20260504020057 | 0 | 237 | 0.0 | 0.0 | 0.00 | 0.00 | 0.00 | 1008.4 | |
| 20260504015554 | 0 | 237 | 0.0 | 0.9 | 0.00 | 0.00 | 0.00 | 1008.2 | |
| 20260504015049 | 0 | 237 | 0.0 | 0.0 | 0.00 | 0.00 | 0.00 | 1008.1 | |
| 20260504014546 | 0 | 237 | 0.0 | 0.9 | 0.00 | 0.00 | 0.00 | 1008.1 | |
| 20260504014043 | 0 | 237 | 0.0 | 0.9 | 0.00 | 0.00 | 0.00 | 1008.0 | |
| 20260504013541 | 0 | 238 | 0.9 | 0.9 | 0.00 | 0.00 | 0.00 | 1008.2 | |
| 20260504013038 | 0 | 236 | 0.9 | 0.9 | 0.00 | 0.00 | 0.00 | 1008.1 | |
| 20260504012535 | 0 | 236 | 0.0 | 0.9 | 0.00 | 0.00 | 0.00 | 1008.0 | |
| 20260504012033 | 0 | 262 | 0.9 | 1.7 | 0.00 | 0.00 | 0.00 | 1008.0 | |
| 20260504011529 | 0 | 248 | 0.9 | 1.7 | 0.00 | 0.00 | 0.00 | 1008.0 | |
| 20260504011025 | 0 | 234 | 0.0 | 0.0 | 0.00 | 0.00 | 0.00 | 1007.9 | |
| 20260504010521 | 0 | 234 | 0.0 | 0.0 | 0.00 | 0.00 | 0.00 | 1008.0 | |
| 20260504010017 | 0 | 236 | 0.0 | 0.9 | 0.00 | 0.00 | 0.00 | 1007.9 | |
| 20260504005514 | 0 | 317 | 1.7 | 1.7 | 0.00 | 0.00 | 0.00 | 1007.8 | |
| 20260504005012 | 0 | 268 | 0.9 | 1.7 | 0.00 | 0.00 | 0.00 | 1007.8 | |
| 20260504004509 | 0 | 222 | 0.0 | 0.9 | 0.00 | 0.00 | 0.00 | 1007.8 | |
| 20260504004006 | 0 | 211 | 0.0 | 0.9 | 0.00 | 0.00 | 0.00 | 1008.1 | |
| 20260504003502 | 0 | 214 | 1.7 | 1.7 | 0.00 | 0.00 | 0.00 | 1007.7 | |
| 20260504002959 | 0 | 238 | 1.7 | 2.6 | 0.00 | 0.00 | 0.00 | 1007.7 | |
| 20260504002456 | 0 | 235 | 3.5 | 4.3 | 0.00 | 0.00 | 0.00 | 1007.8 | |
| 20260504001953 | 0 | 240 | 2.6 | 5.2 | 0.00 | 0.00 | 0.00 | 1007.7 | |
| 20260504001451 | 0 | 231 | 0.9 | 1.7 | 0.00 | 0.00 | 0.00 | 1007.6 | |
| 20260504000947 | 0 | 284 | 2.6 | 4.3 | 0.00 | 0.00 | 0.00 | 1007.7 | |
| 20260504000444 | 0 | 248 | 1.7 | 2.6 | 0.00 | 0.00 | 0.00 | 1007.7 | |
| 20260503235942 | 0 | 272 | 5.2 | 7.0 | 0.00 | 0.00 | 0.00 | 1007.8 | |
| 20260503235439 | 0 | 277 | 4.3 | 5.2 | 0.00 | 0.00 | 0.00 | 1007.5 | |
| 20260503234936 | 0 | 273 | 4.3 | 7.8 | 0.00 | 0.00 | 0.00 | 1007.5 | |
| 20260503234434 | 0 | 280 | 6.1 | 9.6 | 0.00 | 0.00 | 0.00 | 1007.5 | |
| 20260503233932 | 0 | 293 | 2.6 | 6.1 | 0.00 | 0.00 | 0.00 | 1007.7 | |
| 20260503233428 | 0 | 258 | 3.5 | 11.3 | 0.00 | 0.00 | 0.00 | 1007.6 | |
| 20260503232925 | 0 | 262 | 7.0 | 7.8 | 0.00 | 0.00 | 0.00 | 1007.6 | |
| 20260503232422 | 0 | 257 | 5.2 | 7.8 | 0.00 | 0.00 | 0.00 | 1007.7 | |
| 20260503231920 | 0 | 289 | 5.2 | 8.7 | 0.00 | 0.00 | 0.00 | 1008.0 | |
| 20260503231417 | 0 | 281 | 7.8 | 8.7 | 0.00 | 0.00 | 0.00 | 1007.7 | |
| 20260503230913 | 0 | 270 | 4.3 | 7.0 | 0.00 | 0.00 | 0.00 | 1007.8 | |
| 20260503230409 | 0 | 240 | 4.3 | 8.7 | 0.00 | 0.00 | 0.00 | 1007.9 | |
| 20260503225908 | 0 | 241 | 9.6 | 12.2 | 0.00 | 0.00 | 0.00 | 1007.9 | |
| 20260503225403 | 0 | 227 | 7.0 | 11.3 | 0.00 | 0.00 | 0.00 | 1008.0 | |
| 20260503224859 | 0 | 279 | 5.2 | 7.8 | 0.00 | 0.00 | 0.00 | 1007.8 | |
| 20260503224357 | 0 | 246 | 4.3 | 8.7 | 0.00 | 0.00 | 0.00 | 1007.8 | |
| 20260503223854 | 0 | 235 | 6.1 | 8.7 | 0.00 | 0.00 | 0.00 | 1007.8 | |
| 20260503223352 | 0 | 229 | 4.3 | 7.8 | 0.00 | 0.00 | 0.00 | 1007.9 | |
| 20260503222847 | 0 | 239 | 6.1 | 11.3 | 0.00 | 0.00 | 0.00 | 1008.2 | |
| 20260503222346 | 0 | 244 | 7.8 | 11.3 | 0.00 | 0.00 | 0.00 | 1008.1 | |
| 20260503221844 | 0 | 245 | 7.8 | 9.6 | 0.00 | 0.00 | 0.00 | 1008.2 | |
| 20260503221342 | 0 | 233 | 6.1 | 11.3 | 0.00 | 0.00 | 0.00 | 1008.2 | |
| 20260503220838 | 0 | 239 | 5.2 | 11.3 | 0.00 | 0.00 | 0.00 | 1008.2 | |
| 20260503220335 | 0 | 231 | 9.6 | 12.2 | 0.00 | 0.00 | 0.00 | 1008.3 | |
| 20260503215832 | 0 | 248 | 8.7 | 12.2 | 0.00 | 0.00 | 0.00 | 1008.3 | |
| 20260503215329 | 0 | 307 | 7.0 | 11.3 | 0.00 | 0.00 | 0.00 | 1008.4 | |
| 20260503214827 | 0 | 258 | 9.6 | 17.4 | 0.00 | 0.00 | 0.00 | 1008.1 | |
| 20260503214324 | 0 | 258 | 4.3 | 9.6 | 0.00 | 0.00 | 0.00 | 1008.4 | |
| 20260503213821 | 0 | 228 | 5.2 | 11.3 | 0.00 | 0.00 | 0.00 | 1008.4 | |
| 20260503213319 | 0 | 239 | 7.8 | 9.6 | 0.00 | 0.00 | 0.00 | 1008.4 | |
| 20260503212815 | 0 | 239 | 9.6 | 14.8 | 0.00 | 0.00 | 0.00 | 1008.5 | |
| 20260503212313 | 0 | 265 | 7.8 | 12.2 | 0.00 | 0.00 | 0.00 | 1008.2 | |
| 20260503211810 | 0 | 231 | 13.0 | 14.8 | 0.00 | 0.00 | 0.00 | 1008.4 | |
| 20260503211307 | 0 | 261 | 9.6 | 13.9 | 0.00 | 0.00 | 0.00 | 1008.7 | |
| 20260503210807 | 0 | 245 | 11.3 | 14.8 | 0.00 | 0.00 | 0.00 | 1008.5 | |
| 20260503210305 | 0 | 241 | 5.2 | 9.6 | 0.00 | 0.00 | 0.00 | 1008.7 | |
| 20260503205800 | 0 | 222 | 8.7 | 13.9 | 0.00 | 0.00 | 0.00 | 1008.8 | |
| 20260503205256 | 0 | 296 | 5.2 | 8.7 | 0.00 | 0.00 | 0.00 | 1008.8 | |
| 20260503204753 | 0 | 230 | 7.0 | 11.3 | 0.00 | 0.00 | 0.00 | 1008.7 | |
| 20260503204251 | 0 | 262 | 10.4 | 13.9 | 0.00 | 0.00 | 0.00 | 1008.9 | |
| 20260503203748 | 0 | 249 | 9.6 | 12.2 | 0.00 | 0.00 | 0.00 | 1009.0 | |
| 20260503203245 | 0 | 241 | 4.3 | 9.6 | 0.00 | 0.00 | 0.00 | 1009.1 | |
| 20260503202742 | 0 | 239 | 8.7 | 13.9 | 0.00 | 0.00 | 0.00 | 1009.1 | |
| 20260503202240 | 0 | 241 | 8.7 | 13.9 | 0.00 | 0.00 | 0.00 | 1009.1 | |
| 20260503201738 | 0 | 208 | 9.6 | 13.9 | 0.00 | 0.00 | 0.00 | 1009.3 | |
| 20260503201235 | 0 | 168 | 11.3 | 17.4 | 0.00 | 0.00 | 0.00 | 1009.2 | |
| 20260503200731 | 0 | 224 | 11.3 | 15.6 | 0.00 | 0.00 | 0.00 | 1009.3 | |
| 20260503200228 | 0 | 237 | 8.7 | 9.6 | 0.00 | 0.00 | 0.00 | 1009.4 | |
| 20260503195724 | 0 | 225 | 12.2 | 13.9 | 0.00 | 0.00 | 0.00 | 1009.5 | |
| 20260503195221 | 0 | 203 | 12.2 | 15.6 | 0.00 | 0.00 | 0.00 | 1009.4 | |
| 20260503194719 | 0 | 243 | 9.6 | 15.6 | 0.00 | 0.00 | 0.00 | 1009.7 | |
| 20260503194215 | 0 | 233 | 6.1 | 9.6 | 0.00 | 0.00 | 0.00 | 1009.8 | |
| 20260503193711 | 0 | 216 | 9.6 | 15.6 | 0.00 | 0.00 | 0.00 | 1009.9 | |
| 20260503193207 | 0 | 231 | 8.7 | 18.2 | 0.00 | 0.00 | 0.00 | 1010.2 | |
| 20260503192703 | 0 | 194 | 9.6 | 15.6 | 0.00 | 0.00 | 0.00 | 1010.0 | |
| 20260503192158 | 0 | 250 | 8.7 | 15.6 | 0.00 | 0.00 | 0.00 | 1009.9 | |
| 20260503191655 | 0 | 229 | 10.4 | 19.1 | 0.00 | 0.00 | 0.00 | 1010.3 | |
| 20260503191152 | 0 | 223 | 13.9 | 18.2 | 0.00 | 0.00 | 0.00 | 1010.1 | |
| 20260503190649 | 0 | 255 | 11.3 | 17.4 | 0.00 | 0.00 | 0.00 | 1010.2 | |
| 20260503190146 | 0 | 244 | 5.2 | 8.7 | 0.00 | 0.00 | 0.00 | 1010.3 | |
| 20260503185643 | 0 | 236 | 13.9 | 20.0 | 0.00 | 0.00 | 0.00 | 1010.4 | |
| 20260503185138 | 0 | 194 | 7.8 | 19.1 | 0.00 | 0.00 | 0.00 | 1010.3 | |
| 20260503184633 | 0 | 217 | 11.3 | 17.4 | 0.00 | 0.00 | 0.00 | 1010.3 | |
| 20260503184130 | 0 | 226 | 13.0 | 19.1 | 0.00 | 0.00 | 0.00 | 1010.5 | |
| 20260503183626 | 0 | 209 | 13.9 | 17.4 | 0.00 | 0.00 | 0.00 | 1010.5 | |
| 20260503183124 | 0 | 216 | 8.7 | 15.6 | 0.00 | 0.00 | 0.00 | 1010.6 | |
| 20260503182622 | 0 | 239 | 13.0 | 21.7 | 0.00 | 0.00 | 0.00 | 1010.6 | |
| 20260503182120 | 0 | 224 | 12.2 | 20.9 | 0.00 | 0.00 | 0.00 | 1010.7 | |
| 20260503181616 | 0 | 223 | 13.0 | 23.5 | 0.00 | 0.00 | 0.00 | 1010.6 | |
| 20260503181113 | 0 | 227 | 13.0 | 18.2 | 0.00 | 0.00 | 0.00 | 1010.8 | |
| 20260503180610 | 0 | 240 | 12.2 | 15.6 | 0.00 | 0.00 | 0.00 | 1010.8 | |
| 20260503180108 | 0 | 196 | 13.0 | 15.6 | 0.00 | 0.00 | 0.00 | 1010.7 | |
| 20260503175605 | 0 | 251 | 11.3 | 17.4 | 0.00 | 0.00 | 0.00 | 1011.1 | |
| 20260503175102 | 0 | 199 | 13.9 | 21.7 | 0.00 | 0.00 | 0.00 | 1010.8 | |
| 20260503174559 | 0 | 238 | 10.4 | 14.8 | 0.00 | 0.00 | 0.00 | 1011.2 | |
| 20260503174055 | 0 | 252 | 13.9 | 18.2 | 0.00 | 0.00 | 0.00 | 1011.0 | |
| 20260503173550 | 0 | 254 | 9.6 | 15.6 | 0.00 | 0.00 | 0.00 | 1011.3 | |
| 20260503173047 | 0 | 264 | 14.8 | 18.2 | 0.00 | 0.00 | 0.00 | 1011.5 | |
| 20260503172544 | 0 | 228 | 15.6 | 18.2 | 0.00 | 0.00 | 0.00 | 1011.5 | |
| 20260503172042 | 0 | 208 | 11.3 | 20.0 | 0.00 | 0.00 | 0.00 | 1011.5 | |
| 20260503171538 | 0 | 223 | 14.8 | 20.0 | 0.00 | 0.00 | 0.00 | 1011.9 | |
| 20260503171035 | 0 | 200 | 8.7 | 13.9 | 0.00 | 0.00 | 0.00 | 1011.7 | |
| 20260503170531 | 0 | 252 | 11.3 | 19.1 | 0.00 | 0.00 | 0.00 | 1011.7 | |
| 20260503150919 | 0 | 161 | 8.7 | 15.6 | 0.00 | 0.00 | 0.00 | 1013.0 | |
| 20260503150415 | 0 | 206 | 8.7 | 12.2 | 0.00 | 0.00 | 0.00 | 1013.3 | |
| 20260503131308 | 0 | 228 | 10.4 | 21.7 | 0.00 | 0.00 | 0.00 | 1015.2 | |
| 20260503130806 | 0 | 254 | 8.7 | 12.2 | 0.00 | 0.00 | 0.00 | 1015.2 | |
| 20260503130303 | 0 | 247 | 7.8 | 13.0 | 0.00 | 0.00 | 0.00 | 1015.1 | |
| 20260503110656 | 0 | 222 | 6.1 | 11.3 | 0.00 | 0.00 | 0.00 | 1014.9 | |
| 20260503110153 | 0 | 248 | 5.2 | 11.3 | 0.00 | 0.00 | 0.00 | 1015.0 | |
| 20260503100120 | 0 | 191 | 4.3 | 7.0 | 0.00 | 0.00 | 0.00 | 1015.5 | |
| 20260503081510 | 0 | 203 | 0.9 | 1.7 | 0.00 | 0.00 | 0.00 | 1016.2 | |
| 20260503081007 | 0 | 195 | 2.6 | 2.6 | 0.00 | 0.00 | 0.00 | 1016.2 | |
| 20260503080503 | 0 | 187 | 1.7 | 2.6 | 0.00 | 0.00 | 0.00 | 1016.2 | |
| 20260503072939 | 0 | 188 | 0.9 | 1.7 | 0.00 | 0.00 | 0.00 | 1016.5 | |
| 20260503072437 | 0 | 192 | 0.0 | 0.0 | 0.00 | 0.00 | 0.00 | 1016.6 | |
| 20260503071933 | 0 | 191 | 0.9 | 1.7 | 0.00 | 0.00 | 0.00 | 1016.4 | |
| 20260503071430 | 0 | 209 | 0.0 | 0.0 | 0.00 | 0.00 | 0.00 | 1016.4 | |
| 20260503070926 | 0 | 210 | 0.9 | 0.9 | 0.00 | 0.00 | 0.00 | 1016.8 | |
| 20260503070424 | 0 | 194 | 0.9 | 0.9 | 0.00 | 0.00 | 0.00 | 1016.8 | |
| 20260503054837 | 0 | 188 | 2.6 | 2.6 | 0.00 | 0.00 | 0.00 | 1017.2 | |
| 20260503054333 | 0 | 168 | 2.6 | 5.2 | 0.00 | 0.00 | 0.00 | 1017.1 | |
| 20260503053831 | 0 | 181 | 5.2 | 6.1 | 0.00 | 0.00 | 0.00 | 1017.3 | |
| 20260503053329 | 0 | 195 | 2.6 | 2.6 | 0.00 | 0.00 | 0.00 | 1017.3 | |
| 20260503052825 | 0 | 190 | 3.5 | 4.3 | 0.00 | 0.00 | 0.00 | 1017.4 | |
| 20260503052322 | 0 | 198 | 2.6 | 5.2 | 0.00 | 0.00 | 0.00 | 1017.3 | |
| 20260503051818 | 0 | 195 | 2.6 | 5.2 | 0.00 | 0.00 | 0.00 | 1017.5 | |
| 20260503051315 | 0 | 195 | 2.6 | 4.3 | 0.00 | 0.00 | 0.00 | 1017.6 | |
| 20260503050812 | 0 | 190 | 1.7 | 2.6 | 0.00 | 0.00 | 0.00 | 1017.3 | |
| 20260503050308 | 0 | 202 | 0.9 | 1.7 | 0.00 | 0.00 | 0.00 | 1017.5 | |
| 20260503045806 | 0 | 184 | 0.9 | 1.7 | 0.00 | 0.00 | 0.00 | 1017.8 | |
| 20260503045305 | 0 | 181 | 1.7 | 2.6 | 0.00 | 0.00 | 0.00 | 1017.5 | |
| 20260503044759 | 0 | 189 | 1.7 | 1.7 | 0.00 | 0.00 | 0.00 | 1017.5 | |
| 20260503044251 | 0 | 231 | 2.6 | 2.6 | 0.00 | 0.00 | 0.00 | 1017.5 | |
| 20260503043749 | 0 | 214 | 0.9 | 1.7 | 0.00 | 0.00 | 0.00 | 1017.6 | |
| 20260503043246 | 0 | 197 | 0.0 | 0.9 | 0.00 | 0.00 | 0.00 | 1017.6 | |
| 20260503042741 | 0 | 208 | 1.7 | 2.6 | 0.00 | 0.00 | 0.00 | 1017.4 | |
| 20260503042238 | 0 | 210 | 1.7 | 1.7 | 0.00 | 0.00 | 0.00 | 1017.5 | |
| 20260503041734 | 0 | 215 | 0.9 | 2.6 | 0.00 | 0.00 | 0.00 | 1017.8 | |
| 20260503041232 | 0 | 218 | 3.5 | 4.3 | 0.00 | 0.00 | 0.00 | 1017.8 | |
| 20260503040729 | 0 | 188 | 1.7 | 1.7 | 0.00 | 0.00 | 0.00 | 1018.0 | |
| 20260503040227 | 0 | 209 | 0.9 | 1.7 | 0.00 | 0.00 | 0.00 | 1017.9 | |
| 20260503035723 | 0 | 219 | 1.7 | 1.7 | 0.00 | 0.00 | 0.00 | 1017.8 |